| time (UTC) | temp F | wind direction | speed knots | gust knots | rain 1hr in | rain 24hr in | rain mn in | humidity % | barometer mb |
| 20260510063524 | 85 | 275 | 6.1 | 13.0 | 0.00 | 0.00 | 0.00 | 12 | 1012.9 |
| 20260510063020 | 85 | 239 | 7.8 | 15.6 | 0.00 | 0.00 | 0.00 | 12 | 1012.8 |
| 20260510062516 | 86 | 260 | 6.1 | 15.6 | 0.00 | 0.00 | 0.00 | 12 | 1012.8 |
| 20260510062015 | 86 | 277 | 8.7 | 13.9 | 0.00 | 0.00 | 0.00 | 12 | 1012.7 |
| 20260510061511 | 85 | 286 | 7.0 | 13.0 | 0.00 | 0.00 | 0.00 | 12 | 1012.6 |
| 20260510061027 | 85 | 269 | 7.0 | 13.9 | 0.00 | 0.00 | 0.00 | 12 | 1012.6 |
| 20260510060523 | 86 | 273 | 7.8 | 13.9 | 0.00 | 0.00 | 0.00 | 12 | 1012.7 |
| 20260510060031 | 86 | 258 | 5.2 | 11.3 | 0.00 | 0.00 | 0.00 | 12 | 1012.6 |
| 20260510055512 | 85 | 263 | 5.2 | 11.3 | 0.00 | 0.00 | 0.00 | 12 | 1012.4 |
| 20260510055027 | 85 | 279 | 4.3 | 9.6 | 0.00 | 0.00 | 0.00 | 12 | 1012.4 |
| 20260510054523 | 85 | 295 | 3.5 | 8.7 | 0.00 | 0.00 | 0.00 | 12 | 1012.4 |
| 20260510054022 | 85 | 275 | 4.3 | 8.7 | 0.00 | 0.00 | 0.00 | 12 | 1012.4 |
| 20260510053518 | 83 | 287 | 2.6 | 5.2 | 0.00 | 0.00 | 0.00 | 14 | 1012.3 |
| 20260510053014 | 82 | 289 | 2.6 | 4.3 | 0.00 | 0.00 | 0.00 | 14 | 1012.4 |
| 20260510052529 | 82 | 287 | 1.7 | 3.5 | 0.00 | 0.00 | 0.00 | 15 | 1012.1 |
| 20260510052025 | 81 | 287 | 1.7 | 3.5 | 0.00 | 0.00 | 0.00 | 15 | 1012.1 |
| 20260510051520 | 81 | 287 | 1.7 | 3.5 | 0.00 | 0.00 | 0.00 | 15 | 1012.0 |
| 20260510051016 | 81 | 287 | 1.7 | 3.5 | 0.00 | 0.00 | 0.00 | 15 | 1012.0 |
| 20260510050516 | 82 | 287 | 1.7 | 3.5 | 0.00 | 0.00 | 0.00 | 15 | 1012.0 |
| 20260510050043 | 83 | 287 | 1.7 | 3.5 | 0.00 | 0.00 | 0.00 | 14 | 1011.9 |
| 20260510045523 | 84 | 287 | 1.7 | 5.2 | 0.00 | 0.00 | 0.00 | 14 | 1011.9 |
| 20260510045018 | 84 | 287 | 2.6 | 5.2 | 0.00 | 0.00 | 0.00 | 14 | 1011.9 |
| 20260510044514 | 85 | 287 | 2.6 | 6.1 | 0.00 | 0.00 | 0.00 | 14 | 1011.8 |
| 20260510044030 | 84 | 282 | 2.6 | 6.1 | 0.00 | 0.00 | 0.00 | 14 | 1011.7 |
| 20260510043526 | 84 | 279 | 2.6 | 5.2 | 0.00 | 0.00 | 0.00 | 14 | 1011.8 |
| 20260510043026 | 84 | 279 | 3.5 | 5.2 | 0.00 | 0.00 | 0.00 | 14 | 1011.6 |
| 20260510042522 | 85 | 283 | 2.6 | 3.5 | 0.00 | 0.00 | 0.00 | 13 | 1011.6 |
| 20260510042018 | 84 | 282 | 1.7 | 3.5 | 0.00 | 0.00 | 0.00 | 13 | 1011.4 |
| 20260510041514 | 85 | 281 | 1.7 | 3.5 | 0.00 | 0.00 | 0.00 | 13 | 1011.4 |
| 20260510041029 | 85 | 281 | 1.7 | 3.5 | 0.00 | 0.00 | 0.00 | 13 | 1011.3 |
| 20260510040525 | 84 | 282 | 2.6 | 5.2 | 0.00 | 0.00 | 0.00 | 13 | 1011.3 |
| 20260510040033 | 85 | 282 | 2.6 | 5.2 | 0.00 | 0.00 | 0.00 | 13 | 1011.3 |
| 20260510035519 | 85 | 284 | 2.6 | 3.5 | 0.00 | 0.00 | 0.00 | 13 | 1011.1 |
| 20260510035014 | 85 | 283 | 1.7 | 3.5 | 0.00 | 0.00 | 0.00 | 13 | 1011.2 |
| 20260510034530 | 86 | 283 | 2.6 | 3.5 | 0.00 | 0.00 | 0.00 | 12 | 1011.1 |
| 20260510034026 | 86 | 283 | 2.6 | 3.5 | 0.00 | 0.00 | 0.00 | 12 | 1011.0 |
| 20260510033521 | 86 | 285 | 2.6 | 5.2 | 0.00 | 0.00 | 0.00 | 12 | 1011.0 |
| 20260510033017 | 87 | 283 | 2.6 | 5.2 | 0.00 | 0.00 | 0.00 | 12 | 1010.9 |
| 20260510032533 | 87 | 287 | 2.6 | 6.1 | 0.00 | 0.00 | 0.00 | 12 | 1010.8 |
| 20260510032028 | 87 | 289 | 2.6 | 6.1 | 0.00 | 0.00 | 0.00 | 12 | 1010.7 |
| 20260510031528 | 87 | 315 | 2.6 | 5.2 | 0.00 | 0.00 | 0.00 | 12 | 1010.5 |
| 20260510031024 | 85 | 329 | 1.7 | 4.3 | 0.00 | 0.00 | 0.00 | 13 | 1010.6 |
| 20260510030519 | 85 | 329 | 2.6 | 4.3 | 0.00 | 0.00 | 0.00 | 13 | 1010.4 |
| 20260510030046 | 85 | 331 | 2.6 | 4.3 | 0.00 | 0.00 | 0.00 | 13 | 1010.3 |
| 20260510025528 | 86 | 331 | 1.7 | 2.6 | 0.00 | 0.00 | 0.00 | 13 | 1010.3 |
| 20260510025024 | 86 | 331 | 1.7 | 2.6 | 0.00 | 0.00 | 0.00 | 12 | 1010.2 |
| 20260510024519 | 87 | 331 | 1.7 | 2.6 | 0.00 | 0.00 | 0.00 | 12 | 1010.1 |
| 20260510024019 | 88 | 331 | 2.6 | 2.6 | 0.00 | 0.00 | 0.00 | 11 | 1010.1 |
| 20260510023515 | 89 | 331 | 0.9 | 2.6 | 0.00 | 0.00 | 0.00 | 11 | 1010.0 |
| 20260510023030 | 89 | 331 | 1.7 | 2.6 | 0.00 | 0.00 | 0.00 | 11 | 1010.0 |
| 20260510022527 | 90 | 331 | 0.9 | 1.7 | 0.00 | 0.00 | 0.00 | 11 | 1009.9 |
| 20260510022023 | 91 | 331 | 0.9 | 1.7 | 0.00 | 0.00 | 0.00 | 10 | 1009.9 |
| 20260510021519 | 91 | 331 | 0.9 | 2.6 | 0.00 | 0.00 | 0.00 | 10 | 1009.9 |
| 20260510021014 | 91 | 331 | 0.9 | 4.3 | 0.00 | 0.00 | 0.00 | 10 | 1009.8 |
| 20260510020514 | 92 | 327 | 1.7 | 4.3 | 0.00 | 0.00 | 0.00 | 10 | 1009.9 |
| 20260510020042 | 92 | 324 | 0.9 | 4.3 | 0.00 | 0.00 | 0.00 | 10 | 1009.6 |
| 20260510015523 | 92 | 329 | 0.9 | 4.3 | 0.00 | 0.00 | 0.00 | 10 | 1009.6 |
| 20260510015019 | 93 | 329 | 1.7 | 9.6 | 0.00 | 0.00 | 0.00 | 10 | 1009.6 |
| 20260510014515 | 93 | 17 | 2.6 | 9.6 | 0.00 | 0.00 | 0.00 | 9 | 1009.6 |
| 20260510014031 | 93 | 322 | 0.9 | 4.3 | 0.00 | 0.00 | 0.00 | 9 | 1009.6 |
| 20260510013526 | 94 | 295 | 2.6 | 4.3 | 0.00 | 0.00 | 0.00 | 9 | 1009.6 |
| 20260510013026 | 94 | 303 | 0.9 | 3.5 | 0.00 | 0.00 | 0.00 | 9 | 1009.6 |
| 20260510012522 | 94 | 302 | 1.7 | 5.2 | 0.00 | 0.00 | 0.00 | 9 | 1009.6 |
| 20260510012017 | 94 | 310 | 1.7 | 6.1 | 0.00 | 0.00 | 0.00 | 9 | 1009.7 |
| 20260510011513 | 94 | 358 | 1.7 | 7.8 | 0.00 | 0.00 | 0.00 | 9 | 1009.6 |
| 20260510011029 | 95 | 340 | 1.7 | 7.8 | 0.00 | 0.00 | 0.00 | 9 | 1009.6 |
| 20260510010526 | 95 | 346 | 1.7 | 8.7 | 0.00 | 0.00 | 0.00 | 9 | 1009.6 |
| 20260510010033 | 95 | 316 | 1.7 | 8.7 | 0.00 | 0.00 | 0.00 | 9 | 1009.5 |
| 20260510005518 | 96 | 288 | 3.5 | 7.0 | 0.00 | 0.00 | 0.00 | 9 | 1009.6 |
| 20260510005014 | 96 | 288 | 1.7 | 5.2 | 0.00 | 0.00 | 0.00 | 8 | 1009.6 |
| 20260510004530 | 96 | 346 | 1.7 | 4.3 | 0.00 | 0.00 | 0.00 | 8 | 1009.6 |
| 20260510004026 | 97 | 303 | 1.7 | 7.8 | 0.00 | 0.00 | 0.00 | 8 | 1009.5 |
| 20260510003522 | 97 | 279 | 3.5 | 7.8 | 0.00 | 0.00 | 0.00 | 8 | 1009.6 |
| 20260510003018 | 97 | 293 | 2.6 | 6.1 | 0.00 | 0.00 | 0.00 | 8 | 1009.6 |
| 20260510002514 | 96 | 352 | 2.6 | 7.8 | 0.00 | 0.00 | 0.00 | 9 | 1009.6 |
| 20260510002013 | 96 | 293 | 2.6 | 7.8 | 0.00 | 0.00 | 0.00 | 9 | 1009.7 |
| 20260510001530 | 96 | 3 | 3.5 | 7.0 | 0.00 | 0.00 | 0.00 | 9 | 1009.7 |
| 20260510001026 | 97 | 317 | 2.6 | 6.1 | 0.00 | 0.00 | 0.00 | 9 | 1009.6 |
| 20260510000522 | 98 | 294 | 3.5 | 11.3 | 0.00 | 0.00 | 0.00 | 8 | 1009.7 |
| 20260510000029 | 98 | 298 | 3.5 | 11.3 | 0.00 | 0.00 | 0.00 | 8 | 1009.7 |
| 20260509235530 | 98 | 265 | 4.3 | 10.4 | 0.00 | 0.00 | 0.00 | 8 | 1009.7 |
| 20260509235026 | 99 | 266 | 3.5 | 10.4 | 0.00 | 0.00 | 0.00 | 8 | 1009.9 |
| 20260509234522 | 98 | 300 | 1.7 | 6.1 | 0.00 | 0.00 | 0.00 | 9 | 1009.8 |
| 20260509234022 | 98 | 245 | 1.7 | 7.8 | 0.00 | 0.00 | 0.00 | 8 | 1009.8 |
| 20260509233517 | 98 | 275 | 4.3 | 7.8 | 0.00 | 0.00 | 0.00 | 8 | 1009.9 |
| 20260509233013 | 98 | 4 | 2.6 | 7.0 | 0.00 | 0.00 | 0.00 | 9 | 1010.0 |
| 20260509232529 | 97 | 36 | 2.6 | 8.7 | 0.00 | 0.00 | 0.00 | 8 | 1010.0 |
| 20260509232024 | 97 | 359 | 2.6 | 8.7 | 0.00 | 0.00 | 0.00 | 8 | 1010.0 |
| 20260509231519 | 98 | 323 | 1.7 | 6.1 | 0.00 | 0.00 | 0.00 | 9 | 1010.1 |
| 20260509231016 | 98 | 11 | 1.7 | 5.2 | 0.00 | 0.00 | 0.00 | 8 | 1010.1 |
| 20260509230516 | 100 | 273 | 2.6 | 9.6 | 0.00 | 0.00 | 0.00 | 8 | 1010.3 |
| 20260509230043 | 100 | 271 | 4.3 | 9.6 | 0.00 | 0.00 | 0.00 | 8 | 1010.3 |
| 20260509225524 | 100 | 260 | 4.3 | 12.2 | 0.00 | 0.00 | 0.00 | 8 | 1010.3 |
| 20260509225019 | 100 | 277 | 7.0 | 11.3 | 0.00 | 0.00 | 0.00 | 8 | 1010.4 |
| 20260509224516 | 100 | 324 | 3.5 | 10.4 | 0.00 | 0.00 | 0.00 | 8 | 1010.5 |
| 20260509224032 | 99 | 290 | 4.3 | 10.4 | 0.00 | 0.00 | 0.00 | 8 | 1010.5 |
| 20260509223528 | 99 | 271 | 3.5 | 7.8 | 0.00 | 0.00 | 0.00 | 9 | 1010.6 |
| 20260509223027 | 99 | 339 | 2.6 | 6.1 | 0.00 | 0.00 | 0.00 | 9 | 1010.6 |
| 20260509222523 | 98 | 339 | 1.7 | 9.6 | 0.00 | 0.00 | 0.00 | 9 | 1010.6 |
| 20260509222019 | 98 | 356 | 2.6 | 9.6 | 0.00 | 0.00 | 0.00 | 9 | 1010.8 |
| 20260509221515 | 99 | 309 | 1.7 | 6.1 | 0.00 | 0.00 | 0.00 | 9 | 1010.7 |
| 20260509221031 | 99 | 76 | 2.6 | 9.6 | 0.00 | 0.00 | 0.00 | 8 | 1010.9 |
| 20260509220526 | 99 | 270 | 1.7 | 11.3 | 0.00 | 0.00 | 0.00 | 9 | 1010.9 |
| 20260509220035 | 99 | 291 | 6.1 | 10.4 | 0.00 | 0.00 | 0.00 | 9 | 1011.1 |
| 20260509215520 | 98 | 294 | 2.6 | 9.6 | 0.00 | 0.00 | 0.00 | 9 | 1011.1 |
| 20260509215016 | 96 | 113 | 0.9 | 9.6 | 0.00 | 0.00 | 0.00 | 9 | 1011.2 |
| 20260509214531 | 97 | 65 | 4.3 | 9.6 | 0.00 | 0.00 | 0.00 | 9 | 1011.3 |
| 20260509214027 | 100 | 289 | 4.3 | 10.4 | 0.00 | 0.00 | 0.00 | 9 | 1011.4 |
| 20260509213523 | 100 | 294 | 5.2 | 10.4 | 0.00 | 0.00 | 0.00 | 9 | 1011.4 |
| 20260509213020 | 99 | 11 | 2.6 | 7.0 | 0.00 | 0.00 | 0.00 | 9 | 1011.4 |
| 20260509212516 | 100 | 349 | 2.6 | 7.0 | 0.00 | 0.00 | 0.00 | 9 | 1011.6 |
| 20260509212016 | 99 | 320 | 3.5 | 7.8 | 0.00 | 0.00 | 0.00 | 9 | 1011.6 |
| 20260509211531 | 99 | 292 | 3.5 | 7.8 | 0.00 | 0.00 | 0.00 | 9 | 1011.8 |
| 20260509211028 | 97 | 313 | 3.5 | 7.0 | 0.00 | 0.00 | 0.00 | 9 | 1012.0 |
| 20260509210524 | 97 | 353 | 2.6 | 7.0 | 0.00 | 0.00 | 0.00 | 9 | 1012.0 |
| 20260509210031 | 99 | 6 | 1.7 | 7.0 | 0.00 | 0.00 | 0.00 | 9 | 1012.1 |
| 20260509205513 | 99 | 353 | 2.6 | 8.7 | 0.00 | 0.00 | 0.00 | 9 | 1012.2 |
| 20260509205029 | 98 | 285 | 1.7 | 8.7 | 0.00 | 0.00 | 0.00 | 9 | 1012.1 |
| 20260509204524 | 97 | 38 | 1.7 | 8.7 | 0.00 | 0.00 | 0.00 | 9 | 1012.2 |
| 20260509204025 | 97 | 11 | 4.3 | 8.7 | 0.00 | 0.00 | 0.00 | 9 | 1012.4 |
| 20260509203520 | 98 | 71 | 2.6 | 7.8 | 0.00 | 0.00 | 0.00 | 9 | 1012.4 |
| 20260509203016 | 98 | 12 | 3.5 | 7.8 | 0.00 | 0.00 | 0.00 | 9 | 1012.6 |
| 20260509202532 | 98 | 279 | 1.7 | 7.8 | 0.00 | 0.00 | 0.00 | 9 | 1012.8 |
| 20260509202028 | 99 | 320 | 4.3 | 8.7 | 0.00 | 0.00 | 0.00 | 9 | 1012.7 |
| 20260509201524 | 98 | 280 | 3.5 | 8.7 | 0.00 | 0.00 | 0.00 | 9 | 1012.7 |
| 20260509201019 | 99 | 289 | 3.5 | 8.7 | 0.00 | 0.00 | 0.00 | 9 | 1012.9 |
| 20260509200519 | 99 | 229 | 1.7 | 10.4 | 0.00 | 0.00 | 0.00 | 9 | 1013.0 |
| 20260509200047 | 99 | 260 | 3.5 | 9.6 | 0.00 | 0.00 | 0.00 | 9 | 1013.1 |
| 20260509195528 | 99 | 253 | 2.6 | 7.8 | 0.00 | 0.00 | 0.00 | 9 | 1013.1 |
| 20260509195024 | 99 | 275 | 3.5 | 13.0 | 0.00 | 0.00 | 0.00 | 9 | 1013.0 |
| 20260509194520 | 97 | 309 | 4.3 | 13.0 | 0.00 | 0.00 | 0.00 | 9 | 1013.1 |
| 20260509194016 | 97 | 356 | 2.6 | 8.7 | 0.00 | 0.00 | 0.00 | 9 | 1013.2 |
| 20260509193532 | 100 | 257 | 2.6 | 9.6 | 0.00 | 0.00 | 0.00 | 10 | 1013.3 |
| 20260509193031 | 98 | 279 | 3.5 | 9.6 | 0.00 | 0.00 | 0.00 | 10 | 1013.2 |
| 20260509192527 | 97 | 267 | 3.5 | 8.7 | 0.00 | 0.00 | 0.00 | 10 | 1013.3 |
| 20260509192023 | 97 | 303 | 4.3 | 7.0 | 0.00 | 0.00 | 0.00 | 10 | 1013.4 |
| 20260509191519 | 96 | 355 | 2.6 | 8.7 | 0.00 | 0.00 | 0.00 | 10 | 1013.4 |
| 20260509191015 | 96 | 33 | 4.3 | 9.6 | 0.00 | 0.00 | 0.00 | 10 | 1013.3 |
| 20260509190531 | 97 | 350 | 2.6 | 4.3 | 0.00 | 0.00 | 0.00 | 10 | 1013.4 |
| 20260509190038 | 97 | 331 | 1.7 | 9.6 | 0.00 | 0.00 | 0.00 | 11 | 1013.5 |
| 20260509185523 | 98 | 360 | 3.5 | 9.6 | 0.00 | 0.00 | 0.00 | 10 | 1013.6 |
| 20260509185019 | 97 | 258 | 2.6 | 7.8 | 0.00 | 0.00 | 0.00 | 11 | 1013.7 |
| 20260509184515 | 97 | 271 | 4.3 | 7.8 | 0.00 | 0.00 | 0.00 | 10 | 1013.8 |
| 20260509184031 | 95 | 281 | 0.9 | 7.8 | 0.00 | 0.00 | 0.00 | 11 | 1013.8 |
| 20260509183526 | 97 | 271 | 3.5 | 7.0 | 0.00 | 0.00 | 0.00 | 10 | 1013.8 |
| 20260509183022 | 95 | 345 | 2.6 | 7.0 | 0.00 | 0.00 | 0.00 | 11 | 1013.8 |
| 20260509182518 | 95 | 306 | 1.7 | 7.0 | 0.00 | 0.00 | 0.00 | 11 | 1014.0 |
| 20260509182018 | 96 | 267 | 1.7 | 5.2 | 0.00 | 0.00 | 0.00 | 11 | 1014.1 |
| 20260509181514 | 93 | 38 | 3.5 | 5.2 | 0.00 | 0.00 | 0.00 | 11 | 1014.2 |
| 20260509181030 | 94 | 349 | 1.7 | 7.0 | 0.00 | 0.00 | 0.00 | 12 | 1014.3 |
| 20260509180526 | 93 | 350 | 1.7 | 7.0 | 0.00 | 0.00 | 0.00 | 12 | 1014.4 |
| 20260509180033 | 94 | 15 | 1.7 | 4.3 | 0.00 | 0.00 | 0.00 | 11 | 1014.4 |
| 20260509175514 | 92 | 308 | 0.9 | 5.2 | 0.00 | 0.00 | 0.00 | 12 | 1014.5 |
| 20260509175030 | 91 | 13 | 2.6 | 6.1 | 0.00 | 0.00 | 0.00 | 13 | 1014.7 |
| 20260509174526 | 91 | 44 | 2.6 | 6.1 | 0.00 | 0.00 | 0.00 | 13 | 1014.7 |
| 20260509174026 | 92 | 354 | 2.6 | 8.7 | 0.00 | 0.00 | 0.00 | 13 | 1014.7 |
| 20260509173522 | 93 | 21 | 3.5 | 8.7 | 0.00 | 0.00 | 0.00 | 13 | 1014.6 |
| 20260509173018 | 92 | 320 | 0.9 | 5.2 | 0.00 | 0.00 | 0.00 | 13 | 1014.6 |
| 20260509172513 | 92 | 305 | 1.7 | 5.2 | 0.00 | 0.00 | 0.00 | 14 | 1014.7 |
| 20260509172029 | 91 | 358 | 2.6 | 5.2 | 0.00 | 0.00 | 0.00 | 14 | 1014.7 |
| 20260509171525 | 90 | 351 | 0.0 | 7.8 | 0.00 | 0.00 | 0.00 | 15 | 1014.8 |
| 20260509171022 | 91 | 351 | 2.6 | 7.8 | 0.00 | 0.00 | 0.00 | 14 | 1014.8 |
| 20260509170522 | 90 | 332 | 1.7 | 3.5 | 0.00 | 0.00 | 0.00 | 15 | 1014.8 |
| 20260509170029 | 90 | 23 | 0.9 | 6.1 | 0.00 | 0.00 | 0.00 | 15 | 1014.7 |
| 20260509165530 | 89 | 25 | 0.9 | 6.1 | 0.00 | 0.00 | 0.00 | 16 | 1014.8 |
| 20260509165026 | 90 | 15 | 0.9 | 3.5 | 0.00 | 0.00 | 0.00 | 16 | 1014.9 |
| 20260509164522 | 88 | 15 | 1.7 | 7.0 | 0.00 | 0.00 | 0.00 | 16 | 1014.9 |
| 20260509164018 | 87 | 23 | 2.6 | 7.0 | 0.00 | 0.00 | 0.00 | 17 | 1014.9 |
| 20260509163514 | 88 | 319 | 0.9 | 2.6 | 0.00 | 0.00 | 0.00 | 18 | 1014.9 |
| 20260509163015 | 87 | 334 | 0.9 | 2.6 | 0.00 | 0.00 | 0.00 | 18 | 1015.0 |
| 20260509162531 | 86 | 46 | 0.9 | 2.6 | 0.00 | 0.00 | 0.00 | 19 | 1015.1 |
| 20260509162027 | 86 | 33 | 0.0 | 2.6 | 0.00 | 0.00 | 0.00 | 20 | 1015.1 |
| 20260509161523 | 85 | 33 | 1.7 | 3.5 | 0.00 | 0.00 | 0.00 | 19 | 1015.0 |
| 20260509161018 | 85 | 7 | 1.7 | 3.5 | 0.00 | 0.00 | 0.00 | 19 | 1015.1 |
| 20260509160514 | 83 | 102 | 1.7 | 2.6 | 0.00 | 0.00 | 0.00 | 21 | 1015.0 |
| 20260509160042 | 83 | 102 | 1.7 | 4.3 | 0.00 | 0.00 | 0.00 | 21 | 1015.0 |
| 20260509155528 | 84 | 104 | 0.9 | 3.5 | 0.00 | 0.00 | 0.00 | 22 | 1015.1 |
| 20260509155023 | 81 | 111 | 1.7 | 3.5 | 0.00 | 0.00 | 0.00 | 23 | 1015.1 |
| 20260509154519 | 82 | 112 | 1.7 | 3.5 | 0.00 | 0.00 | 0.00 | 23 | 1015.1 |
| 20260509154015 | 80 | 94 | 1.7 | 4.3 | 0.00 | 0.00 | 0.00 | 24 | 1015.2 |
| 20260509153531 | 80 | 102 | 1.7 | 4.3 | 0.00 | 0.00 | 0.00 | 24 | 1015.1 |
| 20260509153027 | 78 | 135 | 0.9 | 6.1 | 0.00 | 0.00 | 0.00 | 25 | 1015.1 |
| 20260509152524 | 79 | 92 | 2.6 | 6.1 | 0.00 | 0.00 | 0.00 | 26 | 1015.1 |
| 20260509152024 | 77 | 99 | 2.6 | 6.1 | 0.00 | 0.00 | 0.00 | 26 | 1015.1 |
| 20260509151519 | 77 | 94 | 2.6 | 4.3 | 0.00 | 0.00 | 0.00 | 26 | 1015.1 |
| 20260509151015 | 77 | 112 | 1.7 | 4.3 | 0.00 | 0.00 | 0.00 | 27 | 1015.1 |
| 20260509150531 | 76 | 119 | 0.0 | 2.6 | 0.00 | 0.00 | 0.00 | 27 | 1015.1 |
| 20260509150038 | 75 | 119 | 1.7 | 3.5 | 0.00 | 0.00 | 0.00 | 28 | 1015.1 |
| 20260509145520 | 74 | 119 | 1.7 | 3.5 | 0.00 | 0.00 | 0.00 | 28 | 1015.1 |
| 20260509145015 | 74 | 118 | 2.6 | 3.5 | 0.00 | 0.00 | 0.00 | 28 | 1015.1 |
| 20260509144515 | 73 | 137 | 0.9 | 3.5 | 0.00 | 0.00 | 0.00 | 29 | 1015.1 |
| 20260509144031 | 72 | 134 | 2.6 | 3.5 | 0.00 | 0.00 | 0.00 | 29 | 1015.1 |
| 20260509143527 | 72 | 138 | 2.6 | 3.5 | 0.00 | 0.00 | 0.00 | 30 | 1015.1 |
| 20260509143023 | 73 | 139 | 1.7 | 3.5 | 0.00 | 0.00 | 0.00 | 30 | 1015.0 |
| 20260509142519 | 72 | 135 | 1.7 | 5.2 | 0.00 | 0.00 | 0.00 | 30 | 1015.0 |
| 20260509142015 | 71 | 118 | 2.6 | 4.3 | 0.00 | 0.00 | 0.00 | 31 | 1014.9 |
| 20260509141531 | 71 | 122 | 2.6 | 5.2 | 0.00 | 0.00 | 0.00 | 31 | 1014.9 |
| 20260509141027 | 70 | 125 | 1.7 | 5.2 | 0.00 | 0.00 | 0.00 | 31 | 1014.9 |
| 20260509140527 | 70 | 111 | 3.5 | 5.2 | 0.00 | 0.00 | 0.00 | 32 | 1014.9 |
| 20260509140034 | 70 | 116 | 2.6 | 4.3 | 0.00 | 0.00 | 0.00 | 32 | 1014.9 |
| 20260509135516 | 69 | 123 | 1.7 | 4.3 | 0.00 | 0.00 | 0.00 | 33 | 1014.7 |
| 20260509135031 | 69 | 120 | 3.5 | 4.3 | 0.00 | 0.00 | 0.00 | 33 | 1014.8 |
| 20260509134527 | 69 | 123 | 2.6 | 4.3 | 0.00 | 0.00 | 0.00 | 33 | 1014.7 |
| 20260509134023 | 69 | 132 | 1.7 | 4.3 | 0.00 | 0.00 | 0.00 | 33 | 1014.7 |
| 20260509133519 | 68 | 234 | 1.7 | 3.5 | 0.00 | 0.00 | 0.00 | 34 | 1014.5 |
| 20260509133019 | 68 | 242 | 0.0 | 2.6 | 0.00 | 0.00 | 0.00 | 34 | 1014.4 |
| 20260509132515 | 67 | 242 | 0.9 | 2.6 | 0.00 | 0.00 | 0.00 | 35 | 1014.5 |
| 20260509132031 | 67 | 243 | 0.9 | 2.6 | 0.00 | 0.00 | 0.00 | 35 | 1014.5 |
| 20260509131526 | 67 | 243 | 0.0 | 1.7 | 0.00 | 0.00 | 0.00 | 35 | 1014.6 |
| 20260509131022 | 66 | 243 | 0.9 | 3.5 | 0.00 | 0.00 | 0.00 | 36 | 1014.4 |
| 20260509130518 | 66 | 244 | 1.7 | 3.5 | 0.00 | 0.00 | 0.00 | 36 | 1014.3 |
| 20260509130045 | 66 | 245 | 0.9 | 2.6 | 0.00 | 0.00 | 0.00 | 36 | 1014.3 |
| 20260509125531 | 66 | 245 | 0.9 | 3.5 | 0.00 | 0.00 | 0.00 | 36 | 1014.1 |
| 20260509125027 | 66 | 245 | 2.6 | 3.5 | 0.00 | 0.00 | 0.00 | 35 | 1014.2 |
| 20260509124524 | 65 | 246 | 0.9 | 2.6 | 0.00 | 0.00 | 0.00 | 36 | 1014.0 |
| 20260509124019 | 65 | 246 | 0.9 | 1.7 | 0.00 | 0.00 | 0.00 | 36 | 1014.1 |
| 20260509123515 | 65 | 246 | 0.9 | 1.7 | 0.00 | 0.00 | 0.00 | 36 | 1014.0 |
| 20260509123031 | 66 | 246 | 0.9 | 1.7 | 0.00 | 0.00 | 0.00 | 35 | 1014.0 |
| 20260509122527 | 65 | 247 | 0.9 | 1.7 | 0.00 | 0.00 | 0.00 | 36 | 1014.0 |
| 20260509122027 | 65 | 247 | 0.0 | 2.6 | 0.00 | 0.00 | 0.00 | 36 | 1013.9 |
| 20260509121523 | 66 | 247 | 0.9 | 2.6 | 0.00 | 0.00 | 0.00 | 35 | 1013.9 |
| 20260509121019 | 65 | 247 | 0.9 | 3.5 | 0.00 | 0.00 | 0.00 | 36 | 1013.9 |
| 20260509120515 | 65 | 248 | 2.6 | 3.5 | 0.00 | 0.00 | 0.00 | 36 | 1013.8 |
| 20260509120043 | 65 | 248 | 0.9 | 2.6 | 0.00 | 0.00 | 0.00 | 36 | 1013.8 |
| 20260509115524 | 65 | 248 | 0.9 | 2.6 | 0.00 | 0.00 | 0.00 | 36 | 1013.8 |
| 20260509115020 | 65 | 248 | 0.0 | 2.6 | 0.00 | 0.00 | 0.00 | 36 | 1013.7 |
| 20260509114520 | 65 | 248 | 1.7 | 2.6 | 0.00 | 0.00 | 0.00 | 36 | 1013.7 |
| 20260509114016 | 65 | 249 | 0.9 | 1.7 | 0.00 | 0.00 | 0.00 | 36 | 1013.8 |
| 20260509113512 | 65 | 249 | 0.0 | 0.0 | 0.00 | 0.00 | 0.00 | 37 | 1013.7 |
| 20260509113028 | 64 | 249 | 0.0 | 0.0 | 0.00 | 0.00 | 0.00 | 37 | 1013.7 |
| 20260509112523 | 64 | 249 | 0.0 | 0.0 | 0.00 | 0.00 | 0.00 | 36 | 1013.7 |
| 20260509112019 | 65 | 249 | 0.0 | 0.0 | 0.00 | 0.00 | 0.00 | 36 | 1013.5 |
| 20260509111515 | 65 | 249 | 0.0 | 0.0 | 0.00 | 0.00 | 0.00 | 36 | 1013.6 |
| 20260509111030 | 64 | 249 | 0.0 | 0.0 | 0.00 | 0.00 | 0.00 | 37 | 1013.5 |
| 20260509110527 | 65 | 249 | 0.0 | 0.9 | 0.00 | 0.00 | 0.00 | 36 | 1013.5 |
| 20260509110034 | 65 | 249 | 0.0 | 0.9 | 0.00 | 0.00 | 0.00 | 36 | 1013.4 |
| 20260509105516 | 65 | 249 | 0.0 | 0.9 | 0.00 | 0.00 | 0.00 | 34 | 1013.4 |
| 20260509105012 | 66 | 249 | 0.0 | 1.7 | 0.00 | 0.00 | 0.00 | 34 | 1013.4 |
| 20260509104527 | 65 | 249 | 0.0 | 0.9 | 0.00 | 0.00 | 0.00 | 35 | 1013.5 |
| 20260509104023 | 64 | 249 | 0.0 | 0.9 | 0.00 | 0.00 | 0.00 | 37 | 1013.4 |
| 20260509103519 | 65 | 249 | 0.0 | 0.0 | 0.00 | 0.00 | 0.00 | 36 | 1013.4 |
| 20260509103020 | 66 | 249 | 0.0 | 0.9 | 0.00 | 0.00 | 0.00 | 34 | 1013.3 |
| 20260509102515 | 66 | 249 | 0.0 | 1.7 | 0.00 | 0.00 | 0.00 | 34 | 1013.3 |
| 20260509102031 | 67 | 249 | 0.9 | 1.7 | 0.00 | 0.00 | 0.00 | 33 | 1013.4 |
| 20260509101527 | 67 | 249 | 0.9 | 1.7 | 0.00 | 0.00 | 0.00 | 33 | 1013.4 |
| 20260509101023 | 66 | 249 | 0.9 | 1.7 | 0.00 | 0.00 | 0.00 | 33 | 1013.4 |
| 20260509100519 | 66 | 249 | 0.9 | 2.6 | 0.00 | 0.00 | 0.00 | 33 | 1013.4 |
| 20260509100026 | 68 | 249 | 0.9 | 2.6 | 0.00 | 0.00 | 0.00 | 32 | 1013.4 |
| 20260509095511 | 69 | 249 | 0.0 | 5.2 | 0.00 | 0.00 | 0.00 | 31 | 1013.3 |
| 20260509095027 | 71 | 249 | 0.9 | 5.2 | 0.00 | 0.00 | 0.00 | 29 | 1013.4 |
| 20260509094523 | 70 | 266 | 2.6 | 5.2 | 0.00 | 0.00 | 0.00 | 29 | 1013.3 |
| 20260509094018 | 69 | 275 | 0.9 | 1.7 | 0.00 | 0.00 | 0.00 | 31 | 1013.3 |
| 20260509093513 | 71 | 275 | 0.9 | 1.7 | 0.00 | 0.00 | 0.00 | 29 | 1013.3 |
| 20260509093029 | 70 | 275 | 0.9 | 1.7 | 0.00 | 0.00 | 0.00 | 29 | 1013.3 |
| 20260509092525 | 71 | 275 | 0.9 | 2.6 | 0.00 | 0.00 | 0.00 | 28 | 1013.3 |
| 20260509092025 | 72 | 275 | 0.9 | 2.6 | 0.00 | 0.00 | 0.00 | 27 | 1013.3 |
| 20260509091522 | 72 | 275 | 1.7 | 2.6 | 0.00 | 0.00 | 0.00 | 27 | 1013.3 |
| 20260509091017 | 72 | 275 | 0.9 | 1.7 | 0.00 | 0.00 | 0.00 | 27 | 1013.4 |
| 20260509090513 | 72 | 275 | 0.9 | 3.5 | 0.00 | 0.00 | 0.00 | 27 | 1013.5 |
| 20260509090041 | 73 | 275 | 0.9 | 3.5 | 0.00 | 0.00 | 0.00 | 27 | 1013.4 |
| 20260509085523 | 72 | 277 | 1.7 | 3.5 | 0.00 | 0.00 | 0.00 | 28 | 1013.5 |
| 20260509085019 | 70 | 277 | 1.7 | 2.6 | 0.00 | 0.00 | 0.00 | 30 | 1013.5 |
| 20260509084519 | 70 | 277 | 1.7 | 2.6 | 0.00 | 0.00 | 0.00 | 30 | 1013.4 |
| 20260509084014 | 71 | 277 | 1.7 | 2.6 | 0.00 | 0.00 | 0.00 | 29 | 1013.5 |
| 20260509083530 | 73 | 277 | 1.7 | 2.6 | 0.00 | 0.00 | 0.00 | 26 | 1013.3 |
| 20260509083026 | 73 | 277 | 0.9 | 2.6 | 0.00 | 0.00 | 0.00 | 27 | 1013.5 |
| 20260509082522 | 70 | 277 | 0.9 | 2.6 | 0.00 | 0.00 | 0.00 | 29 | 1013.5 |
| 20260509082019 | 71 | 277 | 1.7 | 2.6 | 0.00 | 0.00 | 0.00 | 29 | 1013.5 |
| 20260509081515 | 71 | 277 | 1.7 | 1.7 | 0.00 | 0.00 | 0.00 | 29 | 1013.4 |
| 20260509081014 | 71 | 277 | 0.9 | 1.7 | 0.00 | 0.00 | 0.00 | 28 | 1013.4 |
| 20260509080530 | 72 | 277 | 0.9 | 1.7 | 0.00 | 0.00 | 0.00 | 27 | 1013.4 |
| 20260509080037 | 73 | 277 | 0.0 | 0.9 | 0.00 | 0.00 | 0.00 | 26 | 1013.4 |
| 20260509075519 | 72 | 277 | 0.0 | 2.6 | 0.00 | 0.00 | 0.00 | 26 | 1013.4 |
| 20260509075015 | 72 | 277 | 0.9 | 2.6 | 0.00 | 0.00 | 0.00 | 26 | 1013.5 |
| 20260509074531 | 73 | 277 | 0.9 | 1.7 | 0.00 | 0.00 | 0.00 | 26 | 1013.4 |
| 20260509074027 | 72 | 277 | 0.0 | 1.7 | 0.00 | 0.00 | 0.00 | 27 | 1013.4 |
| 20260509073522 | 72 | 277 | 0.9 | 2.6 | 0.00 | 0.00 | 0.00 | 26 | 1013.4 |
| 20260509073022 | 73 | 277 | 0.9 | 2.6 | 0.00 | 0.00 | 0.00 | 25 | 1013.4 |
| 20260509072518 | 74 | 277 | 0.0 | 1.7 | 0.00 | 0.00 | 0.00 | 23 | 1013.5 |
| 20260509072014 | 74 | 277 | 0.9 | 1.7 | 0.00 | 0.00 | 0.00 | 23 | 1013.4 |
| 20260509071530 | 74 | 277 | 0.0 | 0.9 | 0.00 | 0.00 | 0.00 | 23 | 1013.5 |
| 20260509071026 | 74 | 277 | 0.0 | 1.7 | 0.00 | 0.00 | 0.00 | 23 | 1013.6 |
| 20260509070522 | 76 | 277 | 0.9 | 1.7 | 0.00 | 0.00 | 0.00 | 22 | 1013.4 |
| 20260509070030 | 76 | 277 | 0.9 | 1.7 | 0.00 | 0.00 | 0.00 | 21 | 1013.5 |
| 20260509065515 | 76 | 277 | 0.9 | 1.7 | 0.00 | 0.00 | 0.00 | 20 | 1013.5 |
| 20260509065030 | 77 | 277 | 1.7 | 1.7 | 0.00 | 0.00 | 0.00 | 19 | 1013.4 |
| 20260509064526 | 79 | 277 | 0.9 | 3.5 | 0.00 | 0.00 | 0.00 | 18 | 1013.4 |
| 20260509064022 | 78 | 277 | 1.7 | 3.5 | 0.00 | 0.00 | 0.00 | 18 | 1013.5 |